This demonstration page uses our WeatherBlox Daily Observations layout. Learn more.

Left ArrowRight Arrow

Hourly Observations for August 9, 2022

Temp ( °F °C ) Dew Point ( °F °C ) Humidity (%) Winds ( mph kmh ) Pressure ( in mb ) Visibility ( mi km ) Precip ( " mm )
12:56 am 00:56 Clear 67 19.6 59 15.2 76 76 NE 5 7 30.13 1020 10 16 0.00 0.00
1:56 am 01:56 Clear 66 19 59 15.1 78 78 Calm 30.12 1020 10 16 0.00 0.00
2:56 am 02:56 Clear 65 18.3 58 14.6 79 79 Calm 30.12 1020 10 16 0.00 0.00
3:56 am 03:56 Clear 64 17.6 58 14.5 82 82 Calm 30.12 1020 10 16 0.00 0.00
4:56 am 04:56 Clear 63 17 58 14.3 84 84 Calm 30.11 1020 10 16 0.00 0.00
5:56 am 05:56 Clear 62 16.6 58 14.2 86 86 Calm 30.11 1020 10 16 0.00 0.00
6:56 am 06:56 Hazy 61 16.3 57 13.9 86 86 Calm 30.14 1021 3 5 0.00 0.00
7:56 am 07:56 Sunny 67 19.2 60 15.3 78 78 Calm 30.14 1021 10 16 0.00 0.00
8:56 am 08:56 Sunny 69 20.5 60 15.3 72 72 SE 6 9 30.16 1021 10 16 0.00 0.00
10:56 am 10:56 undefined 77 24.8 60 15.7 57 57 SSE 3 6 30.15 1021 10 16 0.00 0.00
11:56 am 11:56 Sunny 79 26.3 59 15 50 50 S 7 11 30.14 1021 10 16 0.00 0.00
12:56 pm 12:56 undefined 82 28 58 14.6 44 44 SSE 9 15 30.13 1020 9 14 0.00 0.00
1:56 pm 13:56 Sunny 84 28.9 58 14.7 42 42 SSE 6 9 30.12 1020 10 16 0.00 0.00
2:56 pm 14:56 Sunny 86 30 59 14.9 40 40 S 8 13 30.10 1019 10 16 0.00 0.00
3:56 pm 15:56 Sunny 87 30.5 55 12.8 34 34 SSE 8 13 30.09 1019 10 16 0.00 0.00
4:56 pm 16:56 Sunny 86 30.2 57 13.9 37 37 SSW 5 7 30.07 1018 10 16 0.00 0.00
5:56 pm 17:56 Sunny 87 30.7 57 13.9 36 36 SE 6 9 30.06 1018 10 16 0.00 0.00
6:56 pm 18:56 Sunny 86 30.1 57 13.8 37 37 SSE 7 11 30.06 1018 10 16 0.00 0.00
8:56 pm 20:56 Clear 78 25.3 61 15.9 56 56 E 3 6 30.08 1019 10 16 0.00 0.00
9:56 pm 21:56 Clear 76 24.2 61 16.2 61 61 ESE 3 6 30.10 1019 10 16 0.00 0.00
10:56 pm 22:56 Clear 73 22.8 61 16.1 66 66 SE 3 6 30.11 1020 10 16 0.00 0.00
11:56 pm 23:56 Clear 71 21.5 61 16 71 71 Calm 30.13 1020 10 16 0.00 0.00

Powered by AerisWeather